Flag for U.S.A. Weather past 2 weeks in Los Angeles, California, U.S.A.

Now
63 °F

Sunny.


Feels Like: 63 °F
Forecast: 54 / 69 °F
Wind: 5 mph from Northeast

Location: Los Angeles / USC Campus Downtown

Current Time: Jan 27, 2015 at 9:27:03 AM

Latest Report: Jan 27, 2015 at 8:47 AM


Visibility: 10 mi

Pressure: 30.19 "Hg

Humidity: 70%

Dew point: 53 °F

Location of Los AngelesLocation

Historic Weather in Los Angeles — Graph

°F

Los Angeles temperature yesterday

Maximum temperature yesterday: 79 °F (at 11:47 AM)
Minimum temperature yesterday: 57 °F (at 9:47 PM)
Average temperature yesterday: 65 °F

Past Weeks' High & Low Weather Summary

 TemperatureHumidityPressure
High82 °F (Jan 25, 1:47 PM)97% (Jan 20, 2:47 AM)30.26 "Hg (Jan 20, 2:47 AM)
Low48 °F (Jan 14, 3:47 AM)10% (Jan 23, 12:47 PM)29.92 "Hg (Jan 20, 2:47 PM)
Average61 °F55%30.10 "Hg
* Reported Jan 12 7:47 AM — Jan 27 7:47 AM, Los Angeles, Weather by CustomWeather, © 2014

Note: Actual official high and low records may vary slightly from our data, if they occured in-between our weather recording intervals... More about our weather records

Advertising

Los Angeles weather history for previous 24 hours

 ConditionsComfort  
Time TempWeatherWind HumidityBarometerVisibility
7:47 AM
Jan 27
60 °FOvercast.No wind78%30.19 "Hg9 mi
6:47 AM59 °FOvercast.No wind81%30.17 "Hg9 mi
5:47 AM58 °FOvercast.No wind84%30.14 "Hg8 mi
4:47 AM59 °FPassing clouds.No wind81%30.12 "Hg8 mi
3:47 AM58 °FMostly cloudy.No wind84%30.12 "Hg9 mi
2:47 AM58 °FOvercast.No wind84%30.11 "Hg10 mi
1:47 AM57 °FPassing clouds.No wind87%30.11 "Hg10 mi
12:47 AM57 °FMostly cloudy.No wind83%30.10 "Hg10 mi
11:47 PM
Jan 26
58 °FOvercast.No wind78%30.10 "Hg10 mi
10:47 PM58 °FMostly cloudy.No wind78%30.11 "Hg10 mi
9:47 PM57 °FLight rain. Overcast.No wind81%30.10 "Hg10 mi
8:47 PM58 °FMostly cloudy.No wind81%30.09 "Hg10 mi
7:47 PM58 °FLight rain. Overcast.5 mph78%30.09 "Hg10 mi
6:47 PM60 °FOvercast.No wind78%30.06 "Hg10 mi
5:47 PM59 °FLight rain. Overcast.3 mph75%30.06 "Hg10 mi
4:47 PM63 °FLight rain. Overcast.9 mph54%30.06 "Hg10 mi
3:47 PM69 °FMore clouds than sun.7 mph39%30.02 "Hg10 mi
2:47 PM72 °FOvercast.6 mph28%29.99 "Hg10 mi
1:47 PM77 °FScattered clouds.No wind18%29.96 "Hg10 mi
12:47 PM77 °FScattered clouds.5 mph21%29.96 "Hg10 mi
11:47 AM79 °FSunny.7 mph18%29.98 "Hg10 mi
10:47 AM76 °FPassing clouds.6 mph20%30.00 "Hg10 mi
9:47 AM72 °FOvercast.5 mph25%30.01 "Hg10 mi
Weather by CustomWeather, © 2014

See weather overviewHow to use our weather pages